Weather in Zutphen

Netherlands     52°08′36″N   6°12′21″E
temp.,
°C
wind,
m/s
gust,
m/s
humid.,
%
clouds,
%
prec.,
mm/h
press.,
hPa
HPBL,
m
18 april, sun
sun1823:00+4n35815 0.0 102499
02:00+3n32815 0.0 102433
05:00+3n237899 0.0 102358
08:00+5nnw2479100 0.0 1023130
11:00+11n346884 0.0 1023520
14:00+14nne45545 0.0 10221258
17:00+14nne4560100 0.1 10211337
20:00+11n597090 0.4 1021329
19 april, mon
mon1923:00+7n378463 0.0 1022135
02:00+6n358613 0.0 102199
05:00+7n358988 0.0 1020121
08:00+8ne25905 0.1 1021206
11:00+12ene457034 0.0 1020839
14:00+15e5658100 0.4 10191673
17:00+14ene4560100 0.1 10191313
20:00+12ene477050 0.2 1019258
20 april, tue
tue2023:00+9e357463 0.0 1019107
02:00+9ene237576 0.0 101955
05:00+6e22875 0.0 101922
08:00+8e23825 0.0 101988
11:00+13e22615 0.0 1019695
14:00+16ene124966 0.0 10181724
17:00+15ne236191 0.1 1017454
20:00+12nnw46807 0.5 1017125
21 april, wed
wed2123:00+9nne368443 0.1 101896
02:00+8nne257899 0.1 1018134
05:00+8nne2474100 0.0 1019104
08:00+8nnw2578100 0.0 1019184
11:00+10n4677100 0.0 1020659
14:00+11n667052 0.2 1020980
17:00+11n665550 0.0 10201385
20:00+8n696656 0.0 1022575
22 april, thu
thu2223:00+4nnw38865 0.0 1023188
02:00+2nw35888 0.0 1024101
05:00+2nw358637 0.0 102483
08:00+4nw377971 0.0 1025248
11:00+9nnw566099 0.0 10261099
14:00+12n5651100 0.0 10261370
17:00+12n56506 0.0 10271334
20:00+8n47665 0.0 1027221